This demonstration page uses our WeatherBlox Daily Observations layout. Learn more.

41.55636, -103.73856

Hourly Observations for June 17, 2017

Temp ( °F °C ) Dew Point ( °F °C ) Humidity (%) Winds ( mph kmh ) Pressure ( in mb ) Visibility ( mi km ) Precip ( " mm )
12:53 am 00:53 Clear 66 18.9 52 11.1 61 61 NE 10 17 29.65 1004 10 16.0934 0 0
1:53 am 01:53 Clear 64 17.8 52 11.1 65 65 E 7 11 29.65 1004 10 16.0934 0 0
2:53 am 02:53 Clear 63 17.2 53 11.7 70 70 Calm 29.67 1005 10 16.0934 0 0
3:53 am 03:53 Clear 63 17.2 50 10 63 63 N 9 15 29.71 1006 10 16.0934 0 0
4:53 am 04:53 Mostly Cloudy 62 16.7 50 10 65 65 NE 10 17 29.71 1006 10 16.0934 0 0
5:53 am 05:53 Cloudy 61 16.1 51 10.6 70 70 SSE 5 7 29.71 1006 10 16.0934 0 0
6:53 am 06:53 Cloudy with Light Rain 62 16.7 52 11.1 70 70 W 3 6 29.72 1007 10 16.0934 0 0.0254
7:53 am 07:53 Cloudy with Light Rain 60 15.6 55 12.8 84 84 NW 13 20 29.78 1009 8 12.87472 0.03 0.762
8:53 am 08:53 Mostly Cloudy 64 17.8 56 13.3 75 75 undefined N/A 29.77 1008 10 16.0934 0.01 0.254
9:53 am 09:53 Mostly Cloudy 66 18.9 55 12.8 68 68 NNW 3 6 29.77 1008 10 16.0934 0 0
10:53 am 10:53 Cloudy 68 20 56 13.3 65 65 NNW 17 28 29.79 1009 10 16.0934 0 0
11:08 am 11:08 Cloudy 63 17 55 13 77 77 NNW 22 35 29.8 1009 10 16.0934 0 0
11:53 am 11:53 Cloudy with Light Rain 61 16.1 53 11.7 75 75 NNW 16 26 29.85 1011 10 16.0934 0 0.0254
12:02 pm 12:02 Cloudy with Light Rain 61 16 52 11 72 72 NNW 15 24 29.83 1010 10 16.0934 0 0
12:53 pm 12:53 Cloudy with Light Rain 63 17.2 52 11.1 68 68 NW 9 15 29.87 1011 10 16.0934 0 0.0254
1:53 pm 13:53 Cloudy 67 19.4 47 8.3 49 49 NNW 17 28 29.87 1012 10 16.0934 0 0.0254
2:53 pm 14:53 Cloudy 67 19.4 43 6.1 42 42 NNW 18 30 29.89 1012 10 16.0934 0 0
3:53 pm 15:53 Cloudy 71 21.7 42 5.6 35 35 NW 21 33 29.88 1012 10 16.0934 0 0
4:53 pm 16:53 Partly Cloudy 72 22.2 44 6.7 37 37 NNW 15 24 29.86 1011 10 16.0934 0 0
5:53 pm 17:53 Mostly Sunny 73 22.8 42 5.6 33 33 N 12 19 29.86 1011 10 16.0934 0 0
6:53 pm 18:53 Mostly Sunny 72 22.2 39 3.9 30 30 NNW 17 28 29.87 1012 10 16.0934 0 0
7:53 pm 19:53 Sunny 68 20 40 4.4 36 36 N 12 19 29.91 1013 10 16.0934 0 0
8:53 pm 20:53 Clear 61 16.1 42 5.6 50 50 N 8 13 29.93 1014 10 16.0934 0 0
9:53 pm 21:53 Partly Cloudy 59 15 41 5 51 51 N 8 13 29.96 1015 10 16.0934 0 0
10:53 pm 22:53 Mostly Clear 54 12.2 42 5.6 64 64 N 7 11 29.98 1015 10 16.0934 0 0
11:53 pm 23:53 Mostly Clear 51 10.6 42 5.6 71 71 W 8 13 30.01 1016 10 16.0934 0 0

Powered by AerisWeather